Snowfall_Accumulation
0.1 0.0 0.0 0.0 0.0 0.0 0.0 0.0 0.7 0.0 0.0 0.0 0.0 0.0 0.0 0.0 0.0 0.0 0.0 0.0 0.0 0.0 0.0 0.0 0.0 0.0 0.0 0.0 0.0 0.0 0.0 0.0 0.0 0.0 0.0 0.0 0.0 0.0 0.0 0.0 0.0 0.0 0.0 0.0
0.5 0.1 0.0 0.1 0.0 0.0 0.0 0.0 0.0 0.0 0.0 0.0 0.0 0.0 0.0 0.0 0.0 0.0 0.0 0.0 0.0 0.0 0.0 0.0 0.0 0.0 0.0 0.0 0.0 0.0 0.0 0.0 0.0 0.0 0.0 0.0 0.0 0.0 0.0 0.0 0.0 0.0 0.0 0.0
0.4 0.1 0.2 1.0 0.0 0.0 0.0 0.0 0.0 0.6 0.0 0.0 0.0 0.0 0.0 0.0 0.0 0.0 0.0 0.0 0.0 0.0 0.0 0.0 0.0 0.0 0.0 0.0 0.0 0.0 0.1 0.0 0.0 0.0 0.1 0.1 0.0 0.1 0.3 0.3 0.2 0.4 0.9 0.8
2.6 0.4 12.9 0.1 0.0 0.0 0.0 0.0 0.0 0.0 0.0 0.0 0.0 0.0 0.0 0.0 0.0 0.0 0.0 0.0 0.0 0.0 0.0 0.0 0.0 0.0 0.0 0.0 0.1 0.2 0.3 0.4 0.4 0.4 0.7 0.8 0.9 1.6 1.5 0.8 2.2 2.6 2.3 2.5
8.9 2.6 0.1 0.0 0.0 0.0 0.0 0.0 0.0 0.0 0.0 0.0 0.0 0.0 0.0 0.0 0.0 0.0 0.0 0.0 0.0 0.0 0.0 0.0 0.0 0.0 0.1 0.6 0.8 0.8 2.0 2.2 2.2 1.8 2.9 3.4 6.0 5.7 4.6 3.9 4.6 5.8 4.1 4.3
4.5 4.4 4.9 0.1 0.0 0.0 0.0 0.5 0.0 0.0 0.0 0.0 0.0 0.3 0.2 0.0 0.0 0.0 0.0 0.0 0.0 0.0 0.0 0.0 0.1 0.0 0.4 1.9 2.7 3.5 3.3 3.4 3.2 2.9 4.5 6.9 6.5 8.1 6.9 5.6 6.1 3.9 5.0 4.9
3.2 3.4 1.0 0.0 0.0 0.0 0.7 0.1 0.0 0.0 0.0 0.0 0.4 0.1 0.0 0.0 0.1 0.1 0.0 0.0 0.0 0.0 0.1 0.2 0.1 0.1 1.9 2.2 3.3 2.9 3.9 3.5 3.3 3.0 3.6 3.1 3.3 3.6 7.0 7.3 6.5 7.4 6.7 5.9
3.8 6.7 9.0 0.0 0.0 0.0 0.3 0.0 0.0 0.0 0.0 0.0 0.0 0.0 0.1 0.1 0.7 0.4 0.2 0.0 0.0 0.1 0.1 0.0 0.0 0.0 1.1 3.2 3.4 3.4 3.7 4.0 4.1 2.9 2.4 2.5 2.8 3.0 3.3 4.2 6.7 8.9 7.7 6.9
0.2 1.2 0.0 0.0 0.0 0.0 0.0 0.0 0.0 0.0 0.0 0.0 0.0 0.2 0.1 0.6 0.9 1.5 0.4 0.0 0.0 0.0 0.0 0.0 0.0 0.0 0.1 0.4 0.7 2.6 3.9 5.6 4.3 2.6 2.5 1.7 2.2 2.8 3.4 3.2 3.8 3.7 4.9 7.8
0.1 0.0 0.0 0.0 0.0 0.0 0.0 0.0 0.0 0.0 0.0 0.0 0.6 1.7 3.2 3.2 1.5 0.6 0.2 0.0 0.0 0.0 0.0 0.0 0.0 0.0 0.0 0.5 0.6 1.3 2.2 2.8 2.7 2.4 2.7 2.3 2.0 1.9 1.9 2.6 3.0 3.1 4.6 5.6
0.1 0.0 0.0 0.0 0.0 0.0 0.0 0.0 0.0 0.0 0.0 0.0 0.0 0.1 0.0 0.1 0.1 0.2 0.2 0.0 0.0 0.0 0.0 0.0 0.0 0.0 0.2 0.4 0.6 1.8 2.6 2.4 2.6 2.5 1.8 1.9 1.8 1.9 1.5 1.6 1.5 2.2 3.5 3.3
0.4 0.0 0.0 0.0 0.0 0.0 0.0 0.0 0.0 0.0 0.0 0.0 0.0 0.0 0.0 0.1 0.1 0.0 0.1 0.1 0.0 0.1 0.0 0.1 0.1 0.3 0.4 0.3 0.2 0.3 1.0 1.9 2.1 1.9 1.8 1.5 1.3 2.7 nan nan nan nan nan 3.3
0.3 0.0 0.0 0.0 0.0 0.0 0.0 0.0 0.0 0.0 0.0 0.0 0.0 0.0 0.0 0.0 0.0 nan 0.0 0.1 0.6 0.8 0.4 0.6 1.0 1.7 0.8 0.7 0.4 0.5 0.4 0.5 1.5 1.1 1.2 1.3 1.6 1.8 3.0 5.4 nan nan nan nan
0.0 0.0 0.0 0.0 0.2 0.0 0.0 0.0 0.0 0.0 0.0 0.0 0.0 0.0 0.0 0.0 0.0 0.0 0.0 0.1 0.1 0.2 0.9 2.0 3.3 4.7 3.6 2.3 2.0 3.8 2.1 0.6 2.2 2.0 2.3 3.9 5.0 5.6 7.1 8.7 10.6 11.6 nan nan
0.0 0.0 0.0 0.0 0.0 0.0 0.0 0.0 0.0 0.0 0.0 0.0 0.0 0.0 0.0 0.0 0.0 0.0 0.1 0.0 0.1 0.2 0.8 1.8 3.2 5.9 4.6 4.7 5.0 5.7 5.1 6.6 6.3 6.4 6.7 5.5 4.1 4.2 4.5 5.0 6.6 7.7 7.1 5.2
0.0 0.0 0.0 0.0 0.0 0.0 0.0 0.0 0.0 0.0 0.0 0.0 0.0 0.0 0.0 0.0 0.1 0.1 0.2 0.3 0.7 1.2 1.1 5.0 2.7 4.2 4.1 4.1 4.9 3.8 3.9 2.3 2.3 2.9 3.3 3.1 2.9 2.9 2.7 2.8 3.3 4.7 4.7 5.5
0.0 0.2 0.0 0.1 0.1 0.0 0.0 0.0 0.0 0.0 0.0 0.0 0.0 0.0 0.0 0.0 0.1 0.3 1.0 1.8 2.7 3.8 4.6 4.0 5.6 4.9 4.6 3.1 0.7 1.5 2.0 2.2 0.7 1.7 1.9 1.7 2.1 2.4 1.5 1.9 2.5 2.6 5.4 8.1
0.0 0.0 0.0 0.0 0.0 0.0 0.0 0.0 0.0 0.0 0.0 0.0 0.4 2.0 3.9 3.6 1.6 3.5 4.4 4.4 6.8 8.5 6.4 6.1 5.4 5.2 4.3 2.7 0.8 1.1 1.3 1.2 1.3 1.5 1.2 2.1 1.3 0.8 1.5 1.6 1.5 2.1 3.3 12.3
0.0 0.0 0.0 0.0 0.0 0.0 0.0 0.0 0.1 0.1 1.4 1.7 3.6 4.3 5.4 7.2 5.5 7.0 7.2 10.5 11.1 5.3 7.3 4.0 1.2 1.1 0.7 0.9 0.3 0.8 1.0 2.2 1.3 1.1 1.2 4.8 3.6 1.4 3.3 4.5 3.6 5.3 3.5 4.0
0.0 0.0 0.0 0.0 0.0 0.1 0.1 0.8 0.7 1.7 2.5 2.5 7.9 10.5 9.4 12.3 11.6 11.7 6.9 5.8 4.3 4.0 2.4 1.6 0.6 0.5 0.5 0.2 1.0 0.6 1.4 2.3 1.5 2.7 4.5 2.0 6.9 11.6 7.0 6.6 4.6 7.2 13.9 10.6
0.1 0.2 1.0 2.1 4.4 4.0 5.1 5.8 5.3 5.9 6.7 8.7 8.8 12.2 11.5 9.0 8.5 9.3 4.4 1.6 2.5 1.4 0.7 0.6 1.0 1.3 0.7 0.6 0.6 4.2 3.8 6.0 6.3 4.4 7.5 10.2 13.8 9.5 11.4 13.2 12.3 14.7 17.6 14.6
2.6 3.7 5.9 5.0 4.9 5.4 6.5 5.4 4.0 7.0 6.8 9.5 14.3 16.0 11.3 5.0 6.3 5.1 6.5 1.2 1.9 1.8 1.2 1.4 1.2 2.9 2.3 4.2 1.3 5.4 4.3 3.4 4.9 5.3 6.4 10.2 10.6 16.5 17.5 16.7 16.4 19.1 19.3 19.6
3.0 2.8 4.0 5.7 5.1 4.8 4.7 5.0 7.7 5.9 9.9 10.4 10.3 6.1 2.6 1.3 1.0 1.6 2.4 0.4 0.7 3.0 0.7 2.2 4.0 4.7 5.1 7.2 7.2 8.8 8.9 8.8 8.8 7.8 8.3 14.5 14.2 23.4 13.8 14.2 16.4 16.7 22.2 16.0
1.8 1.3 2.3 2.8 2.1 0.5 1.1 1.2 0.5 1.3 6.6 2.7 4.2 6.2 0.6 2.9 4.4 0.6 0.6 5.0 5.1 11.9 6.9 7.7 7.3 5.7 5.9 9.5 10.0 11.5 10.9 11.6 12.6 14.6 7.1 8.5 20.1 17.5 14.5 21.4 15.1 17.3 19.7 17.7
0.7 0.8 1.2 0.7 0.4 1.2 0.5 0.5 0.8 1.1 0.7 0.6 0.3 0.3 0.2 0.5 3.8 1.8 3.7 3.9 5.8 3.8 6.7 7.4 5.8 6.7 12.8 13.2 12.6 13.6 14.3 12.3 14.7 16.8 12.7 18.3 17.4 25.0 22.3 19.1 22.8 23.1 23.7 21.3
0.1 0.5 0.6 0.2 0.4 0.7 0.6 0.7 1.4 1.5 1.4 5.5 3.3 8.8 5.6 2.2 1.7 2.2 3.9 5.3 2.9 5.4 5.1 15.3 17.3 15.6 14.7 9.7 12.5 13.8 10.5 8.8 11.7 12.0 14.3 14.5 14.5 12.5 17.1 15.5 20.5 24.5 29.9 32.1
0.5 0.2 0.7 0.7 0.6 0.6 0.8 0.8 2.1 3.7 4.7 6.5 6.7 7.7 4.1 6.4 8.7 5.6 6.9 9.1 10.4 11.6 15.0 17.8 15.0 9.9 8.2 12.9 11.7 10.0 9.5 10.3 9.9 7.5 16.3 19.7 19.7 26.0 24.7 24.3 27.5 28.9 26.7 23.9
Water_Equivalent
0.02 0.00 0.00 0.01 0.00 0.00 0.00 0.00 0.14 0.00 0.00 0.00 0.00 0.00 0.00 0.00 0.00 0.00 0.00 0.00 0.00 0.00 0.00 0.00 0.00 0.00 0.00 0.00 0.00 0.00 0.00 0.00 0.00 0.00 0.00 0.00 0.00 0.00 0.00 0.00 0.00 0.00 0.00 0.00
0.09 0.02 0.01 0.02 0.00 0.00 0.00 0.00 0.00 0.00 0.00 0.00 0.00 0.00 0.00 0.00 0.00 0.00 0.00 0.00 0.00 0.00 0.00 0.00 0.00 0.00 0.00 0.00 0.00 0.00 0.00 0.00 0.00 0.00 0.00 0.00 0.00 0.00 0.00 0.00 0.00 0.00 0.00 0.00
0.06 0.03 0.05 0.17 0.00 0.00 0.00 0.00 0.00 0.11 0.00 0.00 0.00 0.00 0.00 0.00 0.00 0.00 0.00 0.00 0.00 0.00 0.00 0.00 0.00 0.00 0.00 0.00 0.00 0.00 0.02 0.00 0.00 0.01 0.02 0.02 0.01 0.03 0.07 0.07 0.04 0.09 0.19 0.17
0.45 0.07 1.38 0.02 0.00 0.00 0.00 0.00 0.00 0.00 0.00 0.00 0.00 0.00 0.00 0.00 0.00 0.00 0.00 0.00 0.00 0.00 0.00 0.00 0.00 0.00 0.00 0.02 0.04 0.06 0.08 0.10 0.09 0.10 0.17 0.18 0.21 0.37 0.36 0.20 0.56 0.51 0.40 0.42
1.32 0.40 0.02 0.00 0.00 0.00 0.00 0.00 0.00 0.00 0.00 0.00 0.00 0.00 0.00 0.00 0.00 0.00 0.00 0.00 0.00 0.00 0.00 0.00 0.01 0.00 0.03 0.22 0.25 0.21 0.50 0.56 0.55 0.45 0.69 0.79 1.33 1.21 1.08 0.75 0.84 1.16 0.79 0.74
0.64 0.54 0.65 0.02 0.00 0.00 0.00 0.12 0.00 0.00 0.00 0.00 0.00 0.09 0.06 0.00 0.00 0.00 0.00 0.00 0.00 0.01 0.02 0.01 0.02 0.02 0.14 0.59 0.83 1.06 0.91 0.88 0.81 0.72 1.05 1.54 1.49 1.78 1.55 1.15 1.18 0.78 0.88 0.91
0.49 0.50 0.20 0.00 0.00 0.00 0.14 0.02 0.00 0.00 0.00 0.00 0.10 0.04 0.00 0.00 0.02 0.03 0.00 0.00 0.00 0.00 0.02 0.07 0.03 0.05 0.62 0.72 0.98 0.87 1.17 0.88 0.78 0.65 0.77 0.66 0.68 0.74 1.63 1.72 1.59 1.44 1.26 1.15
0.60 0.93 1.05 0.00 0.00 0.00 0.07 0.00 0.00 0.00 0.00 0.00 0.00 0.00 0.02 0.03 0.23 0.15 0.07 0.01 0.00 0.02 0.03 0.01 0.00 0.00 0.40 1.09 1.05 1.01 1.03 0.87 0.86 0.53 0.40 0.41 0.56 0.54 0.61 0.84 1.39 1.91 1.53 1.50
0.04 0.26 0.00 0.00 0.00 0.00 0.00 0.00 0.00 0.00 0.00 0.00 0.00 0.05 0.05 0.15 0.25 0.44 0.11 0.01 0.00 0.00 0.01 0.01 0.00 0.00 0.02 0.12 0.18 0.71 0.74 1.00 0.76 0.42 0.42 0.26 0.33 0.48 0.66 0.63 0.74 0.58 0.85 1.24
0.02 0.00 0.00 0.00 0.00 0.00 0.00 0.00 0.00 0.00 0.00 0.01 0.19 0.54 0.92 0.88 0.39 0.16 0.05 0.00 0.00 0.00 0.00 0.01 0.00 0.00 0.00 0.12 0.18 0.27 0.35 0.40 0.39 0.33 0.38 0.32 0.32 0.32 0.32 0.45 0.52 0.58 0.83 0.90
0.01 0.00 0.00 0.00 0.00 0.00 0.00 0.00 0.00 0.00 0.00 0.00 0.01 0.04 0.01 0.02 0.04 0.05 0.06 0.01 0.00 0.00 0.00 0.00 0.00 0.01 0.05 0.09 0.15 0.30 0.41 0.34 0.36 0.36 0.25 0.27 0.29 0.33 0.27 0.27 0.29 0.42 0.61 0.59
0.11 0.00 0.00 0.00 0.00 0.00 0.00 0.00 0.00 0.00 0.00 0.00 0.00 0.00 0.01 0.02 0.01 0.01 0.03 0.02 0.01 0.01 0.01 0.01 0.02 0.07 0.09 0.08 0.04 0.06 0.15 0.30 0.35 0.30 0.28 0.23 0.21 0.40 nan nan nan nan nan 0.72
0.10 0.00 0.00 0.00 0.00 0.00 0.00 0.00 0.00 0.00 0.00 0.00 0.00 0.00 0.00 0.01 0.00 nan 0.01 0.02 0.15 0.19 0.09 0.12 0.23 0.35 0.15 0.13 0.07 0.09 0.06 0.07 0.28 0.20 0.22 0.24 0.28 0.31 0.47 0.89 nan nan nan nan
0.00 0.00 0.00 0.00 0.05 0.00 0.00 0.00 0.00 0.00 0.00 0.00 0.00 0.00 0.00 0.00 0.00 0.00 0.01 0.01 0.01 0.05 0.17 0.41 0.63 0.88 0.88 0.66 0.52 0.91 0.53 0.19 0.52 0.45 0.50 0.88 1.16 1.19 1.44 1.60 1.75 1.84 nan nan
0.00 0.00 0.00 0.00 0.00 0.00 0.00 0.00 0.00 0.00 0.00 0.00 0.00 0.00 0.00 0.00 0.00 0.01 0.02 0.00 0.02 0.04 0.15 0.33 0.56 1.05 1.02 1.20 1.28 1.48 1.33 1.66 1.59 1.55 1.63 1.34 0.97 0.92 0.93 0.97 1.22 1.29 1.23 1.06
0.00 0.00 0.00 0.00 0.00 0.00 0.00 0.00 0.00 0.01 0.00 0.00 0.00 0.00 0.00 0.00 0.02 0.03 0.04 0.06 0.13 0.21 0.19 0.89 0.42 0.69 0.73 0.79 0.91 0.72 0.79 0.66 0.51 0.60 0.67 0.63 0.60 0.55 0.49 0.55 0.62 0.73 0.64 0.67
0.00 0.04 0.00 0.02 0.01 0.00 0.00 0.00 0.00 0.00 0.00 0.00 0.01 0.00 0.00 0.00 0.02 0.05 0.17 0.29 0.47 0.64 0.78 0.68 0.91 0.87 0.77 0.55 0.14 0.34 0.43 0.47 0.24 0.38 0.39 0.38 0.44 0.50 0.32 0.39 0.46 0.43 0.78 1.30
0.00 0.00 0.00 0.01 0.00 0.00 0.01 0.00 0.00 0.00 0.00 0.00 0.09 0.42 0.77 0.66 0.24 0.49 0.63 0.67 1.06 1.30 1.02 0.99 0.84 0.80 0.70 0.44 0.15 0.24 0.29 0.26 0.27 0.34 0.28 0.46 0.29 0.20 0.34 0.35 0.33 0.41 0.57 2.26
0.00 0.00 0.00 0.00 0.00 0.00 0.00 0.00 0.02 0.03 0.32 0.34 0.69 0.74 0.89 1.21 0.88 1.03 1.08 1.68 1.74 0.70 1.01 0.60 0.40 0.20 0.12 0.14 0.06 0.18 0.23 0.57 0.32 0.23 0.26 1.55 0.78 0.30 0.62 0.83 0.67 0.98 0.62 0.59
0.00 0.00 0.00 0.00 0.00 0.02 0.02 0.17 0.14 0.29 0.42 0.42 1.41 1.77 1.36 1.84 1.83 1.82 1.07 0.80 0.60 0.66 0.35 0.25 0.11 0.09 0.08 0.04 0.31 0.13 0.37 0.61 0.38 0.61 0.90 0.41 1.25 1.96 1.20 2.11 0.82 1.23 2.43 1.78
0.02 0.05 0.19 0.42 0.89 0.90 1.15 1.29 1.01 1.02 1.11 1.54 1.55 1.95 1.76 1.31 1.31 1.58 0.70 0.28 0.33 0.21 0.12 0.17 0.17 0.23 0.13 0.11 0.14 0.94 0.85 1.36 1.37 0.86 1.47 2.00 2.69 1.88 2.03 2.41 2.19 2.66 3.11 2.45
0.53 0.72 1.14 0.93 0.93 0.91 1.25 1.03 0.70 1.08 1.06 1.56 2.26 2.45 1.74 0.66 0.94 0.77 1.04 0.23 0.31 0.59 0.26 0.29 0.22 0.92 0.66 1.38 0.28 1.28 0.96 0.75 1.08 1.10 1.22 1.97 2.00 3.07 3.15 2.83 2.73 3.27 3.37 3.46
0.57 0.52 0.70 0.92 0.81 0.75 0.71 0.78 1.21 0.97 1.58 1.48 1.61 0.96 0.48 0.27 0.22 0.36 0.45 0.05 0.15 0.93 0.17 0.52 1.30 1.55 1.67 1.72 1.72 2.03 1.93 1.86 1.79 1.54 1.65 2.84 2.67 4.16 2.16 2.16 2.57 2.64 3.72 2.48
0.32 0.24 0.38 0.48 0.35 0.09 0.15 0.18 0.08 0.19 1.07 0.42 0.72 1.15 0.11 0.66 1.07 0.14 0.16 1.66 1.69 3.52 1.82 1.91 2.02 1.87 1.96 2.26 2.25 2.50 2.27 2.44 2.55 2.83 1.34 2.68 3.77 2.89 2.25 3.29 1.97 2.63 2.89 2.55
0.13 0.15 0.20 0.12 0.07 0.23 0.08 0.08 0.12 0.16 0.10 0.11 0.05 0.05 0.04 0.14 0.89 0.43 0.88 0.92 1.88 1.05 1.48 2.20 1.93 2.20 2.89 2.94 2.67 2.66 2.73 2.26 2.64 3.02 2.10 3.20 2.94 4.24 3.61 2.66 3.07 3.27 3.25 2.92
0.01 0.12 0.13 0.03 0.10 0.15 0.15 0.15 0.29 0.29 0.27 0.92 0.58 1.86 1.30 0.54 0.45 0.50 0.85 1.53 0.65 1.72 0.98 2.80 3.50 3.37 3.16 1.90 2.47 2.56 1.85 1.45 1.96 1.90 2.21 2.18 2.17 1.75 2.19 1.98 2.76 3.55 4.49 4.97
0.13 0.04 0.16 0.16 0.14 0.15 0.18 0.17 0.46 0.72 1.13 1.31 1.19 1.38 0.79 1.27 1.73 1.36 2.05 1.80 1.98 1.99 2.56 3.20 2.73 2.65 1.57 2.52 2.11 1.75 1.62 1.70 2.71 1.12 2.48 2.95 2.77 3.89 3.43 3.48 4.02 4.50 3.79 3.18
SL_Ratio
3.8 3.3 nan 3.5 nan nan nan nan 4.7 5.0 5.0 nan nan nan nan nan nan nan nan nan nan nan nan nan nan nan nan nan nan nan nan nan nan nan nan nan nan nan nan nan nan nan nan nan
5.2 3.7 3.6 4.2 nan nan nan nan 3.3 3.3 10.0 nan nan nan nan nan nan nan nan nan nan nan nan nan nan nan nan nan nan nan nan nan nan nan nan nan nan nan nan nan nan nan nan 3.3
6.3 4.3 4.7 6.1 nan nan nan nan 5.0 5.0 4.3 nan nan nan nan nan nan nan nan nan nan nan nan nan nan nan nan nan nan 3.3 3.7 nan nan 3.1 3.7 3.8 4.0 4.3 4.7 4.8 4.6 4.5 4.8 4.7
5.6 5.4 9.3 5.8 nan nan nan nan nan nan nan nan nan nan nan nan nan nan nan nan nan nan nan nan nan 2.9 nan 2.8 2.8 3.3 4.0 3.8 4.0 4.3 4.3 4.4 4.3 4.4 4.1 4.0 3.9 5.0 5.8 5.8
6.8 6.5 6.2 nan nan 3.1 5.0 5.0 nan nan nan nan nan nan nan nan nan nan nan nan 2.0 nan nan nan 2.5 2.0 2.5 2.8 3.3 3.7 4.0 3.9 4.0 4.0 4.2 4.3 4.5 4.7 4.2 5.3 5.5 5.0 5.2 5.9
6.9 8.1 7.5 3.8 nan nan nan 4.1 nan nan nan nan nan 3.8 3.0 nan nan 0.0 nan nan nan 2.7 2.4 2.9 2.6 2.7 2.9 3.2 3.3 3.3 3.7 3.9 4.0 4.1 4.3 4.5 4.4 4.5 4.5 4.9 5.1 5.0 5.6 5.4
6.6 6.8 5.0 nan nan nan 5.1 5.0 nan nan nan nan 3.8 2.9 nan 3.0 2.7 2.6 5.0 0.0 0.0 nan 2.8 2.6 2.6 2.6 3.1 3.1 3.3 3.3 3.4 3.9 4.2 4.7 4.7 4.7 4.9 4.9 4.3 4.3 4.1 5.1 5.3 5.1
6.4 7.2 8.5 nan nan 4.7 4.2 nan nan nan nan nan nan nan 2.6 2.8 3.2 3.0 3.2 3.2 3.3 3.0 3.3 3.0 nan 0.0 2.7 2.9 3.2 3.4 3.6 4.6 4.8 5.4 6.0 5.9 5.1 5.6 5.3 5.0 4.8 4.7 5.1 4.6
4.7 4.4 nan nan nan nan nan nan nan nan nan nan 3.3 3.0 2.9 4.0 3.7 3.3 3.3 3.0 5.0 2.7 3.2 3.5 nan nan 3.2 3.5 3.6 3.7 5.3 5.6 5.7 6.3 5.9 6.4 6.7 5.9 5.2 5.1 5.2 6.4 5.7 6.3
4.0 nan nan nan nan nan nan nan nan nan nan 2.8 3.2 3.1 3.5 3.7 3.9 3.9 3.5 nan nan nan nan 4.5 nan nan 4.0 3.9 3.6 4.6 6.3 7.0 7.1 7.2 7.2 7.0 6.1 5.9 6.1 5.9 5.8 5.4 5.5 6.2
3.8 3.3 nan nan nan nan nan nan nan nan nan nan 2.9 3.4 3.2 3.6 3.7 3.9 3.9 3.2 nan nan nan 3.8 4.0 4.5 4.5 4.0 4.0 6.0 6.4 6.9 7.3 6.9 7.2 7.0 6.3 5.9 5.7 6.1 5.3 5.3 5.8 5.7
3.5 nan nan nan nan nan nan nan nan nan nan nan nan 2.5 3.2 3.6 3.4 3.3 3.7 3.6 3.6 3.9 3.9 4.4 4.8 5.0 4.3 4.1 4.4 5.7 6.5 6.3 6.1 6.4 6.4 6.5 6.3 6.6 nan nan nan nan nan 4.6
2.5 nan nan nan nan nan nan nan nan nan nan nan nan nan nan 3.4 2.7 nan 2.9 3.7 4.1 4.3 4.6 4.5 4.3 4.9 5.1 5.1 5.4 5.9 6.3 6.6 5.5 5.3 5.4 5.4 5.7 5.9 6.3 6.1 nan nan nan nan
nan nan 5.0 nan 3.3 nan nan nan nan nan nan nan nan nan nan nan nan nan 3.8 3.8 3.8 4.1 5.3 4.8 5.2 5.3 4.1 3.5 3.9 4.2 4.1 3.0 4.2 4.5 4.5 4.5 4.4 4.7 4.9 5.4 6.1 6.3 nan nan
nan nan nan nan nan nan nan nan nan nan nan nan nan nan nan nan 4.2 3.8 4.3 5.0 4.1 4.8 5.2 5.5 5.6 5.6 4.4 3.9 3.9 3.9 3.8 4.0 4.0 4.1 4.1 4.1 4.3 4.6 4.8 5.1 5.4 6.0 5.8 4.9
nan nan nan nan nan nan nan nan 0.0 2.6 nan nan nan nan nan nan 4.3 4.5 4.5 4.6 5.3 5.7 5.9 5.6 6.5 6.1 5.6 5.3 5.3 5.3 5.0 3.5 4.5 4.8 4.9 4.9 4.9 5.2 5.5 5.2 5.3 6.4 7.3 8.2
5.0 5.0 4.6 4.9 4.9 nan nan nan nan nan nan nan 4.1 nan nan 5.0 5.1 5.7 6.0 6.1 5.8 5.9 5.9 5.9 6.1 5.7 5.9 5.7 5.1 4.5 4.7 4.8 3.0 4.5 4.8 4.7 4.7 4.9 4.7 4.9 5.4 6.0 6.9 6.2
nan nan nan 2.3 nan nan 5.0 nan nan nan 3.8 nan 4.3 4.8 5.0 5.4 6.7 7.2 7.0 6.6 6.4 6.5 6.3 6.1 6.4 6.5 6.2 6.0 5.4 4.8 4.6 4.6 4.6 4.5 4.5 4.6 4.5 4.1 4.3 4.6 4.5 5.0 5.8 5.4
nan nan nan nan nan nan nan nan 4.5 4.4 4.3 5.1 5.2 5.8 6.0 5.9 6.3 6.8 6.6 6.3 6.4 7.6 7.3 6.7 3.0 5.2 6.0 6.2 4.9 4.6 4.2 3.9 4.2 4.7 4.5 3.1 4.6 4.5 5.3 5.5 5.3 5.4 5.7 6.8
nan nan nan nan nan 3.6 4.1 4.7 4.6 5.8 5.9 5.9 5.6 5.9 6.9 6.7 6.4 6.4 6.5 7.2 7.3 6.0 7.0 6.6 6.0 6.1 6.1 5.8 3.3 4.4 3.9 3.7 3.9 4.4 5.0 4.9 5.6 5.9 5.8 3.1 5.6 5.9 5.7 6.0
4.2 4.4 5.0 4.9 5.0 4.5 4.5 4.5 5.3 5.8 6.1 5.6 5.7 6.2 6.5 6.9 6.5 5.9 6.3 5.6 7.5 6.9 5.8 3.3 5.8 5.6 5.6 5.3 4.4 4.4 4.5 4.4 4.6 5.1 5.1 5.1 5.1 5.1 5.6 5.5 5.6 5.5 5.6 6.0
4.9 5.2 5.2 5.3 5.3 5.9 5.2 5.3 5.7 6.5 6.4 6.1 6.3 6.5 6.5 7.6 6.7 6.6 6.2 5.3 6.1 3.0 4.7 4.8 5.3 3.1 3.5 3.1 4.7 4.2 4.5 4.4 4.6 4.8 5.2 5.2 5.3 5.4 5.5 5.9 6.0 5.8 5.7 5.7
5.3 5.4 5.8 6.1 6.3 6.5 6.6 6.4 6.3 6.1 6.3 7.0 6.4 6.4 5.5 4.9 4.5 4.5 5.3 6.5 4.7 3.2 4.1 4.2 3.1 3.0 3.0 4.2 4.2 4.3 4.6 4.7 4.9 5.1 5.0 5.1 5.3 5.6 6.4 6.6 6.4 6.3 6.0 6.4
5.6 5.6 6.0 5.9 6.0 6.1 7.2 6.7 6.2 6.5 6.2 6.5 5.9 5.4 5.1 4.5 4.1 4.2 3.7 3.0 3.0 3.4 3.8 4.0 3.6 3.0 3.0 4.2 4.4 4.6 4.8 4.7 4.9 5.2 5.3 3.2 5.3 6.1 6.4 6.5 7.6 6.6 6.8 7.0
5.4 5.7 5.8 5.9 6.0 5.2 6.5 6.7 6.6 6.9 6.6 6.0 6.4 5.9 5.4 3.7 4.3 4.2 4.3 4.3 3.1 3.6 4.5 3.4 3.0 3.0 4.4 4.5 4.7 5.1 5.2 5.4 5.6 5.6 6.0 5.7 5.9 5.9 6.2 7.2 7.4 7.1 7.3 7.3
4.6 4.1 4.4 5.1 4.2 4.5 4.4 4.9 4.7 5.2 5.1 6.0 5.6 4.7 4.3 4.0 3.8 4.4 4.5 3.5 4.5 3.2 5.2 5.5 4.9 4.6 4.7 5.1 5.1 5.4 5.7 6.1 5.9 6.3 6.5 6.6 6.7 7.2 7.8 7.8 7.4 6.9 6.7 6.5
4.0 3.9 4.2 4.5 4.2 4.3 4.4 4.5 4.6 5.2 4.2 4.9 5.6 5.6 5.2 5.1 5.0 4.1 3.3 5.1 5.2 5.8 5.9 5.6 5.5 3.7 5.2 5.1 5.5 5.7 5.9 6.1 3.6 6.7 6.6 6.7 7.1 6.7 7.2 7.0 6.8 6.4 7.0 7.5